Tracking 30056 objects as of 10-Dec-2024
HD Live streaming from Space Station
objects crossing your sky now

STARLINK-5089

Track STARLINK-5089 now!
10-day predictions
STARLINK-5089 is classified as:


NORAD ID: 56148
Int'l Code: 2023-046BJ
Perigee: 565.6 km
Apogee: 566.9 km
Inclination: 43.0 °
Period: 95.8 minutes
Semi major axis: 6937 km
RCS: Unknown
Launch date: March 29, 2023
Source: United States (US)
Launch site: AIR FORCE EASTERN TEST RANGE (AFETR)
Your satellite tracking list
Your tracking list is empty




NASA's NSSDC Master Catalog

Two Line Element Set (TLE):
1 56148U 23046BJ  24345.47796067  .00000575  00000-0  57603-4 0  9995
2 56148  43.0033  55.2199 0000964 273.2666  86.8066 15.02530047 94870
Source of the keplerian elements: AFSPC